Flag for U.S.A. Weather past 2 weeks in Breckenridge, Colorado, U.S.A.

Now
59 °F

Thundershowers. Broken clouds.


Feels Like: 57 °F
Forecast: 45 / 72 °F
Wind: 10 mph from West

Location: Copper Mountain - Red Cliff Pass

Current Time: Aug 21, 2014 at 2:49:29 PM

Latest Report: Aug 21, 2014 at 2:36 PM


Visibility: 10 mi

Pressure: 30.58 "Hg

Humidity: 45%

Dew point: 37 °F

Location of BreckenridgeLocation

Historic Weather in Breckenridge — Graph

°F

Breckenridge temperature yesterday

Maximum temperature yesterday: 59 °F (at 2:16 PM)
Minimum temperature yesterday: 45 °F (at 5:16 AM)
Average temperature yesterday: 49 °F

Past Weeks' High & Low Weather Summary

 TemperatureHumidityPressure
High68 °F (Aug 12, 4:56 PM)87% (Aug 14, 3:56 PM)30.80 "Hg (Aug 14, 3:56 PM)
Low43 °F (Aug 21, 5:36 AM)18% (Aug 16, 3:36 PM)30.36 "Hg (Aug 20, 3:16 AM)
Average53 °F50%30.64 "Hg
* Reported Aug 6 1:16 PM — Aug 21 1:36 PM, Breckenridge, Weather by CustomWeather, © 2014

Note: Actual official high and low records may vary slightly from our data, if they occured in-between our weather recording intervals... More about our weather records

Advertising

Breckenridge weather history for previous 24 hours

 ConditionsComfort  
Time TempWeatherWind HumidityBarometerVisibility
1:36 PM
Aug 21
54 °FBroken clouds.20 mph51%30.57 "Hg10 mi
1:16 PM54 °FCloudy.17 mph51%30.57 "Hg10 mi
12:56 PM54 °FMostly cloudy.18 mph51%30.57 "Hg10 mi
12:36 PM54 °FMostly cloudy.17 mph44%30.57 "Hg10 mi
11:56 AM55 °FPartly sunny.13 mph41%30.58 "Hg10 mi
11:36 AM54 °FBroken clouds.13 mph47%30.58 "Hg10 mi
11:16 AM54 °FPartly sunny.7 mph51%30.58 "Hg10 mi
10:56 AM54 °FScattered clouds.15 mph58%30.57 "Hg10 mi
10:36 AM52 °FScattered clouds.8 mph54%30.57 "Hg10 mi
10:16 AM50 °FScattered clouds.7 mph58%30.56 "Hg10 mi
9:56 AM50 °FScattered clouds.8 mph58%30.56 "Hg10 mi
9:36 AM46 °FScattered clouds.5 mph66%30.55 "Hg10 mi
9:16 AM46 °FScattered clouds.13 mph71%30.55 "Hg10 mi
8:56 AM45 °FScattered clouds.3 mph76%30.55 "Hg10 mi
8:36 AM46 °FPartly sunny.5 mph71%30.55 "Hg10 mi
8:16 AM45 °FPartly sunny.10 mph76%30.55 "Hg10 mi
7:56 AM45 °FScattered clouds.No wind76%30.54 "Hg10 mi
7:36 AM45 °FScattered clouds.5 mph76%30.54 "Hg10 mi
7:16 AM45 °FLow clouds.7 mph76%30.54 "Hg10 mi
6:56 AM45 °FMostly cloudy.12 mph76%30.53 "Hg10 mi
6:36 AM43 °FPassing clouds.7 mph81%30.52 "Hg10 mi
5:56 AM43 °FPassing clouds.13 mph81%30.51 "Hg10 mi
5:36 AM43 °FPassing clouds.7 mph76%30.51 "Hg10 mi
5:16 AM45 °FClear.10 mph76%30.51 "Hg10 mi
4:56 AM45 °FClear.12 mph71%30.51 "Hg10 mi
4:36 AM45 °FPassing clouds.5 mph71%30.51 "Hg10 mi
4:16 AM45 °FPassing clouds.9 mph66%30.51 "Hg10 mi
3:56 AM45 °FPassing clouds.7 mph76%30.51 "Hg10 mi
3:36 AM45 °FPassing clouds.14 mph71%30.51 "Hg10 mi
3:16 AM45 °FPassing clouds.8 mph66%30.50 "Hg10 mi
2:56 AM46 °FPassing clouds.13 mph66%30.50 "Hg10 mi
2:36 AM45 °FPassing clouds.10 mph66%30.51 "Hg10 mi
2:16 AM45 °FPassing clouds.13 mph71%30.51 "Hg10 mi
1:56 AM45 °FPassing clouds.No wind76%30.51 "Hg10 mi
1:36 AM45 °FPassing clouds.3 mph76%30.51 "Hg10 mi
1:16 AM45 °FMostly cloudy.3 mph81%30.52 "Hg10 mi
12:56 AM45 °FLow clouds.3 mph81%30.52 "Hg0 mi
12:36 AM45 °FMostly cloudy.16 mph76%30.51 "Hg1 mi
11:56 PM
Aug 20
46 °FPassing clouds.16 mph71%30.50 "Hg10 mi
11:36 PM46 °FPassing clouds.13 mph66%30.50 "Hg10 mi
11:16 PM46 °FPassing clouds.5 mph71%30.50 "Hg10 mi
10:56 PM46 °FPassing clouds.8 mph66%30.50 "Hg10 mi
10:36 PM46 °FPassing clouds.12 mph66%30.49 "Hg10 mi
10:16 PM46 °FClear.5 mph66%30.49 "Hg10 mi
9:56 PM46 °FClear.6 mph71%30.49 "Hg10 mi
9:36 PM46 °FClear.12 mph71%30.49 "Hg10 mi
9:16 PM46 °FClear.16 mph71%30.49 "Hg10 mi
8:56 PM46 °FThundershowers. Clear.16 mph71%30.49 "Hg10 mi
8:36 PM46 °FSunny.15 mph66%30.48 "Hg10 mi
8:16 PM46 °FScattered clouds.9 mph76%30.47 "Hg10 mi
7:56 PM50 °FScattered clouds.18 mph67%30.47 "Hg10 mi
7:36 PM52 °FScattered clouds.10 mph67%30.48 "Hg10 mi
7:16 PM48 °FBroken clouds.18 mph76%30.47 "Hg10 mi
6:56 PM50 °FPartly sunny.18 mph71%30.47 "Hg10 mi
6:36 PM52 °FBroken clouds.24 mph72%30.47 "Hg10 mi
5:56 PM54 °FBroken clouds.20 mph63%30.46 "Hg10 mi
5:36 PM59 °FBroken clouds.17 mph55%30.46 "Hg10 mi
5:16 PM54 °FScattered clouds.17 mph63%30.46 "Hg10 mi
4:56 PM55 °FBroken clouds.17 mph59%30.46 "Hg10 mi
4:36 PM55 °FBroken clouds.13 mph59%30.46 "Hg10 mi
4:16 PM54 °FScattered clouds.17 mph63%30.46 "Hg10 mi
3:56 PM54 °FScattered clouds.6 mph63%30.46 "Hg10 mi
3:36 PM50 °FPartly sunny.24 mph71%30.46 "Hg10 mi
2:56 PM54 °FMostly cloudy.26 mph63%30.46 "Hg10 mi
2:36 PM57 °FCloudy.17 mph59%30.46 "Hg10 mi
2:16 PM59 °FCloudy.14 mph48%30.46 "Hg10 mi
Weather by CustomWeather, © 2014

See weather overviewHow to use our weather pages